Regional Weather Roundup
Issued by NWS Charleston, SC

Current Version | Previous Version | Graphics & Text | Print | Product List | Glossary On
Versions: 1 2 3 4 5 6 7 8 9 10 11 12 13 14 15 16 17 18 19 20 21 22 23 24 25 26 27 28 29 30 31 32 33 34 35 36 37 38 39 40 41 42 43 44 45 46 47 48 49 50
000
ASUS42 KCHS 290427
RWRCHS

REGIONAL WEATHER ROUNDUP
NATIONAL WEATHER SERVICE CHARLESTON SC
1200 AM EDT WED MAR 29 2017

NOTE: "FAIR" INDICATES FEW OR NO CLOUDS BELOW 12,000 FEET WITH NO
SIGNIFICANT WEATHER AND/OR OBSTRUCTIONS TO VISIBILITY.

NOT ALL STATIONS ARE QUALITY CONTROLLED. USE DATA WITH CAUTION...
ESPECIALLY DEWPOINT OBSERVATIONS.

SCZ027-030-031-034>040-042>050-290500-
...SOUTHEAST SOUTH CAROLINA...

CITY           SKY/WX    TMP DP  RH WIND       PRES   REMARKS
N CHARLESTON   CLEAR     63  60  90 SW3       29.96S
WATERFRONT PRK   N/A     67  63  86 SW5       29.95S
JOHNS ISLAND   FAIR      66  63  88 SW6       29.97S
PINOPOLIS        N/A     68  64  88 SW6       29.86S
MONCKS CORNER  FAIR      64  61  88 SW5       29.95S
SUMMERVILLE    FAIR      63  63 100 S3        29.97S
BEAUFORT MCAS  CLEAR     67  65  93 S5        29.97S
BEAUFORT ARPT  FAIR      66  63  88 S3        29.97S
HILTON HEAD IS CLEAR     70  64  83 S8        29.99S
WALTERBORO     PTCLDY    63  63 100 CALM      29.98S
ALLENDALE      FAIR      68  61  77 CALM      29.96S

...SOUTHERN MIDLANDS AND PEE DEE...

CITY           SKY/WX    TMP DP  RH WIND       PRES   REMARKS
GEORGETOWN     FAIR      61  61 100 SW6       29.95F
KINGSTREE      FAIR      64  59  82 N3        29.96R
ORANGEBURG     CLEAR     62  58  86 S5        29.96S
BARNWELL       FAIR      64  59  82 CALM      29.97S
AIKEN          FAIR      63  55  77 CALM      30.01S
MANNING        FAIR      61  57  88 CALM      29.96R
COLUMBIA       CLEAR     70  55  59 CALM      29.96R
SUMTER         CLEAR     66  56  71 CALM      29.94R
FLORENCE       MOCLDY    68  57  68 CALM      29.95S
MYRTLE BEACH   CLEAR     70  63  78 NW9       29.96
N MYRTLE BEACH PTCLDY    66  62  87 CALM      29.94R

$$

GAZ063-065-086>088-099>101-113>116-118-119-134>141-150-290500-
...SOUTHEAST GEORGIA...

CITY           SKY/WX    TMP DP  RH WIND       PRES   REMARKS
SAVANNAH ARPT  PTCLDY    69  59  70 S5        29.99R
HUNTER AAF     CLEAR     69  65  89 CALM      29.96S
FORT STEWART   CLEAR     66  61  82 CALM      29.97S
STATESBORO     CLEAR     64  64 100 CALM      29.98S
SYLVANIA       CLEAR    N/A N/A N/A CALM      29.99S
CLAXTON        FAIR     N/A N/A N/A CALM      29.99S

...CSRA...CENTRAL AND FAR SOUTHEAST GEORGIA...

CITY           SKY/WX    TMP DP  RH WIND       PRES   REMARKS
THOMSON        CLEAR     60  57  89 CALM      30.03S
AUGUSTA-BUSH   MOCLDY    64  59  83 CALM      29.97R
AUGUSTA-DANIEL CLEAR     72  56  57 W3        29.98R
SWAINSBORO     FAIR      63  61  94 CALM      30.00S
VIDALIA        CLOUDY    70  61  73 SW5       29.99F
EASTMAN        CLOUDY    67  54  61 CALM      30.02S
HAZLEHURST     FAIR      70  65  83 SW3       29.99S
ALMA           CLEAR     68  62  81 SW6       30.00R
WAYCROSS       CLEAR     70  65  84 SW5       30.01S
JESUP          FAIR      64  59  82 CALM      30.00S
BAXLEY         FAIR      70  66  88 W3        30.00S
BRUNSWICK      CLEAR     63  63 100 CALM      30.00F
SAINT SIMONS   CLEAR     69  61  75 CALM      30.00S

$$

SCZ027-028-034-036>038-045-046-048>050-GAZ119-141-290500-
...LAKE AND SUPPLEMENTAL COASTAL OBSERVATIONS...

STATION/POSITION TIME  TEMP    WIND        PRES    WAVE   SWELL
                       AIR SEA DIR/SP/G            HT/PER HT/PER/DIR
                 (UTC) (F)     (DEG/KT/KT) (MB)    (FT/S) (FT/S/D)
WINYAH BAY       0330   67     250/  6     1014.0S
LAKE MURRAY      0350   67     280/  4/  4 1014.2R
ACE BASIN NERRS  0330   64        CALM     1015.0S
FORT PULASKI     0400   68 65  220/  5/  7 1015.6
SAPELO ISLAND    0400   67        CALM     1016.0

$$

ANZ835-935-AMZ111-154-330-350-352-354-370-450-454-472-290500-
...C-MAN AND BUOY OBSERVATIONS...

STATION/POSITION TIME  TEMP    WIND        PRES    WAVE   SWELL
                       AIR SEA DIR/SP/G            HT/PER HT/PER/DIR
                 (UTC) (F)     (DEG/KT/KT) (MB)    (FT/S) (FT/S/D)
BUOY 41004       0350   70 71  240/ 14/ 16 1014.2R   5/11   5/130/11
BUOY 41008       0350   66 64  220/ 10/ 12 1015.5R   3/11   3/130/11
FOLLY BEACH CMAN 0400   65     230/  9/ 11 1015.3S
CAPERS NEARSHORE NOT AVBL
FRIPP NEARSHORE  0408   66 63  230/ 12/ 14 1015.0S


STATION/POSITION TIME  TEMP    WIND        PRES    WAVE   SWELL
                       AIR SEA DIR/SP/G            HT/PER HT/PER/DIR
                 (UTC) (F)     (DEG/KT/KT) (MB)    (FT/S) (FT/S/D)
5E ST. MARYS GA  0400      67                N/A     3/11   3/110/11
FRYING PAN BUOY  0410   71 71  240/ 19/ 23 1013.0
BUOY 41025       0350   71 74  270/ 17/ 19 1012.1R   5/10   3/150/10
CAPE LOOKOUT NC  0400   64     280/ 10/ 11 1012.9R
BUOY 41002       0350   71 72  210/ 14/ 16 1015.5F   6/10   5/100/10
BUOY 41010       NOT AVBL
ST AUGUSTINE FL  0400   70 69  210/  8/ 10 1017.4S


$$




USA.gov is the U.S. government's official web portal to all federal, state and local government web resources and services.